Chariton, IA

7:43 PM CDT on May 22, 2017 (GMT -0500)
Chariton Municipal

Weather History for KCNC - August, 2013

Change the Weather History Date:

Tuesday, August 27, 2013

  Actual Average Record
Temperature  
Mean Temperature 84 °F -  
Max Temperature 95 °F 84 °F 101 °F (1983)
Min Temperature 73 °F 62 °F 42 °F (1967)
Cooling Degree Days 19    
Growing Degree Days 34 (Base 50)    
Moisture  
Dew Point 68 °F    
Average Humidity 63    
Maximum Humidity 88    
Minimum Humidity 39    
Precipitation  
Precipitation 0.00 in - - ()
Sea Level Pressure  
Sea Level Pressure 29.97 in    
Wind  
Wind Speed 11 mph (SW)    
Max Wind Speed 20 mph    
Max Gust Speed 28 mph    
Visibility 10 miles    
Events      
Averages and records for this station are not official NWS values.
T = Trace of Precipitation, MM = Missing Value Source: NWS Daily Summary

Daily Weather History Graph

Daily Weather History Graph

Search for Another Location

Airport or City:

Trip Planner

Search our weather history database for the weather conditions in past years. The results will help you decide how hot, cold, wet, or windy it might be!

Date:

Astronomy

Aug. 27, 2013 Rise Set
Actual Time 6:35 AM CDT 7:53 PM CDT
Civil Twilight 6:06 AM CDT 8:22 PM CDT
Nautical Twilight 5:32 AM CDT 8:56 PM CDT
Astronomical Twilight 4:56 AM CDT 9:32 PM CDT
Moon 11:43 PM CDT (8/27) 1:37 PM CDT (8/27)
Length of Visible Light 14h 15m
Length of Day
13h 18m
Waning Gibbous, 57% of the Moon is Illuminated
Aug 27
Waning Gibbous
Aug 28
Last Quarter
Sep 5
New
Sep 12
First Quarter
Sep 19
Full

Hourly Weather History & Observations

Time (CDT) Temp. Heat Index Dew Point Humidity Pressure Visibility Wind Dir Wind Speed Gust Speed Precip Events Conditions
12:15 AM 75.2 °F - 66.2 °F 73% 30.02 in 10.0 mi SSW 10.4 mph - N/A   Clear
12:35 AM 75.2 °F - 68.0 °F 78% 30.02 in 10.0 mi SSW 9.2 mph - N/A   Clear
12:55 AM 75.2 °F - 68.0 °F 78% 30.02 in 10.0 mi SSW 9.2 mph - N/A   Clear
1:15 AM 77.0 °F - 68.0 °F 74% 30.01 in 10.0 mi SSW 9.2 mph - N/A   Clear
1:35 AM 77.0 °F - 68.0 °F 74% 30.01 in 10.0 mi SSW 10.4 mph - N/A   Clear
1:55 AM 77.0 °F - 68.0 °F 74% 30.01 in 10.0 mi SSW 10.4 mph - N/A   Clear
2:15 AM 75.2 °F - 68.0 °F 78% 30.00 in 10.0 mi SSW 9.2 mph - N/A   Clear
2:35 AM 75.2 °F - 69.8 °F 83% 30.00 in 10.0 mi SSW 9.2 mph - N/A   Clear
2:55 AM 75.2 °F - 69.8 °F 83% 30.00 in 10.0 mi SSW 10.4 mph - N/A   Clear
3:15 AM 75.2 °F - 69.8 °F 83% 30.00 in 10.0 mi SSW 8.1 mph - N/A   Clear
3:35 AM 75.2 °F - 69.8 °F 83% 30.00 in 10.0 mi SSW 9.2 mph - N/A   Clear
3:55 AM 75.2 °F - 69.8 °F 83% 30.00 in 10.0 mi SSW 11.5 mph - N/A   Clear
4:15 AM 75.2 °F - 69.8 °F 83% 30.00 in 10.0 mi SSW 10.4 mph - N/A   Clear
4:35 AM 75.2 °F - 69.8 °F 83% 29.99 in 10.0 mi SSW 9.2 mph - N/A   Clear
4:55 AM 75.2 °F - 69.8 °F 83% 29.99 in 10.0 mi SW 9.2 mph - N/A   Clear
5:15 AM 73.4 °F - 69.8 °F 88% 29.99 in 10.0 mi SW 8.1 mph - N/A   Clear
5:35 AM 75.2 °F - 69.8 °F 83% 29.99 in 10.0 mi SW 10.4 mph - N/A   Clear
5:55 AM 75.2 °F - 69.8 °F 83% 30.00 in 10.0 mi SW 10.4 mph - N/A   Clear
6:15 AM 73.4 °F - 69.8 °F 88% 30.00 in 10.0 mi SW 10.4 mph - N/A   Clear
6:35 AM 73.4 °F - 69.8 °F 88% 30.01 in 10.0 mi SW 10.4 mph - N/A   Clear
6:55 AM 73.4 °F - 69.8 °F 88% 30.01 in 10.0 mi SW 9.2 mph - N/A   Clear
7:15 AM 73.4 °F - 69.8 °F 88% 30.01 in 10.0 mi SW 9.2 mph - N/A   Clear
7:35 AM 73.4 °F - 69.8 °F 88% 30.01 in 10.0 mi SW 9.2 mph - N/A   Clear
7:55 AM 75.2 °F - 69.8 °F 83% 30.02 in 10.0 mi SW 11.5 mph - N/A   Clear
8:15 AM 75.2 °F - 69.8 °F 83% 30.01 in 10.0 mi SW 10.4 mph - N/A   Clear
8:35 AM 77.0 °F - 69.8 °F 78% 30.01 in 10.0 mi SW 10.4 mph - N/A   Clear
8:55 AM 78.8 °F - 69.8 °F 74% 30.01 in 10.0 mi SW 15.0 mph - N/A   Clear
9:15 AM 80.6 °F 83.9 °F 69.8 °F 70% 30.01 in 10.0 mi SW 15.0 mph 21.9 mph N/A   Clear
9:35 AM 82.4 °F 86.3 °F 69.8 °F 66% 30.01 in 10.0 mi SW 13.8 mph 23.0 mph N/A   Clear
9:55 AM 82.4 °F 86.3 °F 69.8 °F 66% 30.00 in 10.0 mi SW 15.0 mph 21.9 mph N/A   Clear
10:15 AM 84.2 °F 88.4 °F 69.8 °F 62% 30.00 in 10.0 mi SW 13.8 mph 20.7 mph N/A   Clear
10:35 AM 86.0 °F 89.4 °F 68.0 °F 55% 30.00 in 10.0 mi WSW 17.3 mph - N/A   Clear
10:55 AM 86.0 °F 90.4 °F 69.8 °F 58% 30.00 in 10.0 mi WSW 11.5 mph 24.2 mph N/A   Clear
11:15 AM 87.8 °F 91.4 °F 68.0 °F 52% 30.00 in 10.0 mi SW 15.0 mph 25.3 mph N/A   Clear
11:35 AM 87.8 °F 91.4 °F 68.0 °F 52% 29.99 in 10.0 mi SW 19.6 mph - N/A   Clear
11:55 AM 89.6 °F 94.7 °F 69.8 °F 52% 29.99 in 10.0 mi SW 13.8 mph 21.9 mph N/A   Clear
12:15 PM 89.6 °F 93.4 °F 68.0 °F 49% 29.98 in 10.0 mi SW 17.3 mph 23.0 mph N/A   Clear
12:35 PM 89.6 °F 93.4 °F 68.0 °F 49% 29.98 in 10.0 mi SW 19.6 mph 27.6 mph N/A   Clear
12:55 PM 91.4 °F 95.4 °F 68.0 °F 46% 29.97 in 10.0 mi SW 17.3 mph 23.0 mph N/A   Clear
1:15 PM 91.4 °F 95.4 °F 68.0 °F 46% 29.96 in 10.0 mi SW 13.8 mph 26.5 mph N/A   Clear
1:35 PM 93.2 °F 96.2 °F 66.2 °F 41% 29.95 in 10.0 mi SW 17.3 mph 24.2 mph N/A   Clear
1:55 PM 93.2 °F 97.7 °F 68.0 °F 44% 29.94 in 10.0 mi SW 16.1 mph 23.0 mph N/A   Clear
2:35 PM 95.0 °F 99.5 °F 68.0 °F 41% 29.94 in 10.0 mi SW 15.0 mph 25.3 mph N/A   Clear
2:55 PM 95.0 °F 98.5 °F 66.2 °F 39% 29.94 in 10.0 mi SW 16.1 mph 25.3 mph N/A   Clear
3:15 PM 95.0 °F 98.5 °F 66.2 °F 39% 29.94 in 10.0 mi SW 13.8 mph 23.0 mph N/A   Clear
3:35 PM 95.0 °F 98.5 °F 66.2 °F 39% 29.93 in 10.0 mi SSW 18.4 mph 24.2 mph N/A   Clear
3:55 PM 95.0 °F 98.5 °F 66.2 °F 39% 29.93 in 10.0 mi SW 13.8 mph 25.3 mph N/A   Clear
4:15 PM 95.0 °F 98.5 °F 66.2 °F 39% 29.93 in 10.0 mi SW 17.3 mph 24.2 mph N/A   Clear
4:35 PM 95.0 °F 98.5 °F 66.2 °F 39% 29.93 in 10.0 mi SW 13.8 mph 26.5 mph N/A   Clear
4:55 PM 95.0 °F 98.5 °F 66.2 °F 39% 29.92 in 10.0 mi SW 15.0 mph 25.3 mph N/A   Clear
5:15 PM 95.0 °F 98.5 °F 66.2 °F 39% 29.93 in 10.0 mi SW 12.7 mph 20.7 mph N/A   Clear
5:35 PM 93.2 °F 96.2 °F 66.2 °F 41% 29.93 in 10.0 mi SW 16.1 mph - N/A   Clear
5:55 PM 93.2 °F 96.2 °F 66.2 °F 41% 29.93 in 10.0 mi SW 15.0 mph 25.3 mph N/A   Clear
6:15 PM 93.2 °F 96.2 °F 66.2 °F 41% 29.93 in 10.0 mi SW 11.5 mph 19.6 mph N/A   Clear
6:35 PM 91.4 °F 94.0 °F 66.2 °F 43% 29.92 in - SW 10.4 mph 16.1 mph N/A   Clear
6:55 PM 91.4 °F 94.0 °F 66.2 °F 43% 29.92 in 10.0 mi SW 9.2 mph - N/A   Clear
7:15 PM 89.6 °F 92.2 °F 66.2 °F 46% 29.92 in 10.0 mi SW 6.9 mph - N/A   Clear
7:35 PM 87.8 °F 90.4 °F 66.2 °F 49% 29.92 in 10.0 mi SW 8.1 mph - N/A   Clear
7:55 PM 86.0 °F 88.2 °F 66.2 °F 51% 29.93 in 10.0 mi SW 6.9 mph - N/A   Clear
8:15 PM 84.2 °F 86.6 °F 66.2 °F 55% 29.93 in 10.0 mi SW 6.9 mph - N/A   Clear
8:35 PM 84.2 °F 86.6 °F 66.2 °F 55% 29.94 in 10.0 mi SW 5.8 mph - N/A   Clear
8:55 PM 82.4 °F 84.6 °F 66.2 °F 58% 29.95 in 10.0 mi SW 6.9 mph - N/A   Clear
9:15 PM 80.6 °F 83.2 °F 68.0 °F 65% 29.95 in 10.0 mi SW 4.6 mph - N/A   Clear
9:35 PM 82.4 °F 84.6 °F 66.2 °F 58% 29.95 in 10.0 mi SW 8.1 mph - N/A   Clear
9:55 PM 80.6 °F 83.2 °F 68.0 °F 65% 29.96 in 10.0 mi SW 5.8 mph - N/A   Clear
10:15 PM 80.6 °F 83.2 °F 68.0 °F 65% 29.96 in 10.0 mi SW 6.9 mph - N/A   Clear
10:35 PM 80.6 °F 82.7 °F 66.2 °F 61% 29.96 in 10.0 mi SW 8.1 mph - N/A   Clear
10:55 PM 80.6 °F 82.7 °F 66.2 °F 61% 29.96 in 10.0 mi SW 8.1 mph 13.8 mph N/A   Clear
11:15 PM 78.8 °F - 66.2 °F 65% 29.96 in 10.0 mi SW 6.9 mph - N/A   Clear
11:35 PM 78.8 °F - 66.2 °F 65% 29.96 in 10.0 mi SSW 8.1 mph - N/A   Clear
11:55 PM 78.8 °F - 66.2 °F 65% 29.96 in 10.0 mi SW 6.9 mph 13.8 mph N/A   Clear